Retour au catalogue

DELTA 1 DEB

ActifPO
NORAD 42633·DEBRIS·🇺🇸 United States

Lancé Jun 12, 1975 depuis Vandenberg Space Force Base

Loading…

Prochains Passages (prochaines 24 heures)

TLE

FraisSource: Space-Track

Époque: Sep 13, 2026, 07:54 UTC

1 42633U 75052LS  26256.32945737  .00000216  00000-0  56200-3 0  9993
2 42633  99.6531  93.9419 0123878 165.9626 194.4988 13.25653343619118

Suivez DELTA 1 DEB en temps réel avec AllMySat

Download on the App Store